TimeCST,TemperatureF,Dew PointF,Humidity,Sea Level PressureIn,VisibilityMPH,Wind Direction,Wind SpeedMPH,Gust SpeedMPH,PrecipitationIn,Events,Conditions,WindDirDegrees,DateUTC
12:15 AM,39.4,36.7,90,30.01,10.0,ENE,8.1,-,N/A,Rain,Rain,70,2012-12-09 06:15:00
12:35 AM,39.2,37.0,92,30.01,7.0,East,5.8,-,N/A,,Drizzle,80,2012-12-09 06:35:00
12:55 AM,39.2,37.4,93,30.01,7.0,ENE,8.1,-,N/A,Rain,Rain,70,2012-12-09 06:55:00
1:15 AM,39.4,37.4,93,29.98,7.0,ENE,15.0,-,N/A,Rain,Rain,70,2012-12-09 07:15:00
1:35 AM,39.4,37.4,93,29.98,7.0,East,9.2,-,N/A,Rain,Light Rain,80,2012-12-09 07:35:00
1:55 AM,39.4,37.4,93,29.97,7.0,ENE,11.5,-,N/A,Rain,Light Rain,70,2012-12-09 07:55:00
2:15 AM,39.2,37.4,93,29.96,7.0,ENE,11.5,17.3,N/A,Rain,Light Rain,70,2012-12-09 08:15:00
2:35 AM,39.2,37.6,94,29.95,5.0,ENE,11.5,17.3,0.01,Rain,Light Rain,70,2012-12-09 08:35:00
2:55 AM,39.2,37.6,94,29.94,5.0,ENE,11.5,-,0.01,,Light Drizzle,70,2012-12-09 08:55:00
3:15 AM,39.4,37.8,94,29.93,4.0,ENE,12.7,18.4,0.01,Rain,Light Rain,70,2012-12-09 09:15:00
3:35 AM,39.4,37.9,95,29.92,5.0,ENE,11.5,-,0.01,,Light Drizzle,70,2012-12-09 09:35:00
3:55 AM,39.6,38.3,95,29.92,5.0,East,9.2,16.1,0.01,,Overcast,80,2012-12-09 09:55:00
4:15 AM,39.7,38.3,95,29.92,4.0,ENE,10.4,-,0.01,Rain,Light Rain,70,2012-12-09 10:15:00
4:35 AM,40.1,38.7,95,29.91,4.0,ENE,10.4,-,0.01,,Drizzle,70,2012-12-09 10:35:00
4:55 AM,40.3,39.0,95,29.89,4.0,ENE,10.4,-,0.02,Rain,Rain,70,2012-12-09 10:55:00
5:15 AM,40.5,39.2,95,29.89,3.0,East,9.2,-,N/A,,Drizzle,80,2012-12-09 11:15:00
5:35 AM,40.6,39.6,96,29.87,4.0,ENE,9.2,-,N/A,,Drizzle,70,2012-12-09 11:35:00
5:55 AM,41.0,39.6,95,29.87,5.0,East,9.2,-,N/A,,Light Drizzle,80,2012-12-09 11:55:00
6:15 AM,41.0,39.6,95,29.86,4.0,ENE,9.2,-,0.02,Rain,Light Rain,70,2012-12-09 12:15:00
6:35 AM,41.0,39.6,95,29.87,5.0,East,5.8,-,0.02,,Overcast,80,2012-12-09 12:35:00
6:55 AM,41.2,40.1,96,29.86,7.0,East,5.8,-,0.02,,Overcast,80,2012-12-09 12:55:00
7:15 AM,41.7,40.3,95,29.86,4.0,East,10.4,-,N/A,,Drizzle,90,2012-12-09 13:15:00
7:35 AM,41.7,40.5,95,29.86,2.5,East,9.2,-,0.01,,Drizzle,100,2012-12-09 13:35:00
7:55 AM,41.9,40.6,95,29.85,4.0,ESE,5.8,-,0.01,,Overcast,110,2012-12-09 13:55:00
8:15 AM,42.1,41.0,96,29.85,2.5,East,8.1,-,N/A,,Drizzle,100,2012-12-09 14:15:00
8:35 AM,42.4,41.4,96,29.84,2.0,ESE,4.6,-,N/A,,Light Drizzle,120,2012-12-09 14:35:00
8:55 AM,42.8,41.9,97,29.84,1.5,ESE,5.8,-,N/A,,Overcast,120,2012-12-09 14:55:00
9:15 AM,43.2,42.1,96,29.84,1.8,SE,5.8,-,N/A,,Overcast,140,2012-12-09 15:15:00
9:35 AM,43.7,42.6,96,29.83,2.5,SE,6.9,-,N/A,,Overcast,130,2012-12-09 15:35:00
9:55 AM,43.9,42.8,96,29.84,2.5,SE,5.8,-,N/A,,Overcast,140,2012-12-09 15:55:00
10:15 AM,44.2,43.2,96,29.84,2.0,SSE,6.9,-,N/A,,Overcast,150,2012-12-09 16:15:00
10:35 AM,44.8,43.7,96,29.84,1.2,South,6.9,-,N/A,,Overcast,170,2012-12-09 16:35:00
10:55 AM,45.3,44.4,97,29.80,0.8,SE,4.6,-,N/A,,Overcast,140,2012-12-09 16:55:00
11:15 AM,46.4,45.1,95,29.79,0.8,SSE,4.6,-,N/A,,Overcast,160,2012-12-09 17:15:00
11:35 AM,46.8,45.9,97,29.77,1.0,SSE,6.9,-,N/A,,Overcast,150,2012-12-09 17:35:00
11:55 AM,47.3,46.4,97,29.77,2.0,SSW,4.6,-,N/A,,Overcast,200,2012-12-09 17:55:00
12:15 PM,47.8,46.8,96,29.78,1.8,SSW,5.8,-,N/A,,Overcast,210,2012-12-09 18:15:00
12:35 PM,47.8,46.8,96,29.78,2.0,WSW,5.8,-,N/A,,Overcast,240,2012-12-09 18:35:00
12:55 PM,47.8,46.6,95,29.78,2.0,WSW,4.6,-,N/A,,Overcast,240,2012-12-09 18:55:00
1:15 PM,47.7,46.4,95,29.77,2.0,WSW,6.9,-,N/A,,Light Drizzle,250,2012-12-09 19:15:00
1:35 PM,47.5,46.4,96,29.77,2.5,West,8.1,-,N/A,,Overcast,260,2012-12-09 19:35:00
1:55 PM,47.5,45.7,93,29.77,4.0,West,5.8,-,N/A,,Overcast,260,2012-12-09 19:55:00
2:15 PM,47.3,45.1,92,29.76,5.0,West,9.2,-,N/A,Rain,Light Rain,270,2012-12-09 20:15:00
2:35 PM,46.8,44.8,93,29.76,5.0,West,4.6,-,N/A,,Overcast,260,2012-12-09 20:35:00
2:55 PM,46.6,44.2,92,29.76,7.0,West,5.8,-,N/A,,Overcast,270,2012-12-09 20:55:00
3:15 PM,46.4,43.7,90,29.77,10.0,West,8.1,-,N/A,,Overcast,280,2012-12-09 21:15:00
3:35 PM,45.9,43.0,90,29.77,7.0,West,4.6,-,N/A,,Overcast,260,2012-12-09 21:35:00
3:55 PM,45.7,42.8,90,29.77,10.0,West,4.6,-,N/A,,Overcast,270,2012-12-09 21:55:00
4:15 PM,45.5,42.8,90,29.77,10.0,West,5.8,-,N/A,,Overcast,280,2012-12-09 22:15:00
4:35 PM,45.5,43.0,91,29.77,7.0,WNW,4.6,-,0.01,,Overcast,290,2012-12-09 22:35:00
4:55 PM,44.6,42.3,91,29.78,7.0,WNW,8.1,17.3,0.01,,Overcast,300,2012-12-09 22:55:00
5:15 PM,44.2,42.1,92,29.78,7.0,WNW,5.8,16.1,N/A,,Overcast,300,2012-12-09 23:15:00
5:35 PM,44.1,41.4,90,29.78,10.0,WNW,9.2,16.1,N/A,,Overcast,300,2012-12-09 23:35:00
5:55 PM,44.1,41.0,89,29.78,10.0,WNW,8.1,19.6,N/A,,Overcast,290,2012-12-09 23:55:00
6:15 PM,43.7,40.5,88,29.79,10.0,WNW,10.4,18.4,N/A,,Overcast,290,2012-12-10 00:15:00
6:35 PM,43.0,39.6,88,29.79,10.0,WNW,10.4,-,N/A,,Overcast,300,2012-12-10 00:35:00
6:55 PM,42.8,39.0,86,29.80,10.0,WNW,13.8,18.4,N/A,,Overcast,300,2012-12-10 00:55:00
7:15 PM,42.4,38.1,85,29.81,10.0,West,6.9,17.3,N/A,,Overcast,280,2012-12-10 01:15:00
7:35 PM,42.3,38.3,86,29.81,10.0,WNW,8.1,-,N/A,,Overcast,290,2012-12-10 01:35:00
7:55 PM,42.1,37.9,85,29.81,10.0,WNW,6.9,-,N/A,,Overcast,290,2012-12-10 01:55:00
8:15 PM,41.9,37.8,85,29.81,10.0,WNW,6.9,-,N/A,,Overcast,290,2012-12-10 02:15:00
8:35 PM,41.9,36.9,82,29.80,10.0,WNW,10.4,-,N/A,,Overcast,290,2012-12-10 02:35:00
8:55 PM,41.9,37.4,84,29.80,10.0,WNW,6.9,-,N/A,,Overcast,290,2012-12-10 02:55:00
9:15 PM,41.9,36.9,82,29.80,10.0,WNW,5.8,-,N/A,,Overcast,290,2012-12-10 03:15:00
9:35 PM,41.5,36.9,83,29.81,10.0,WNW,6.9,-,N/A,,Overcast,290,2012-12-10 03:35:00
9:55 PM,41.5,37.4,85,29.81,10.0,West,6.9,-,N/A,,Overcast,280,2012-12-10 03:55:00
10:15 PM,41.5,36.9,83,29.81,10.0,West,4.6,-,N/A,,Overcast,280,2012-12-10 04:15:00
10:35 PM,41.0,35.6,81,29.80,10.0,West,5.8,-,N/A,,Overcast,280,2012-12-10 04:35:00
10:55 PM,41.4,36.5,83,29.81,10.0,WNW,10.4,16.1,N/A,,Overcast,290,2012-12-10 04:55:00
11:15 PM,40.5,35.6,83,29.82,10.0,WNW,8.1,16.1,N/A,,Overcast,300,2012-12-10 05:15:00
11:35 PM,39.0,34.3,83,29.82,10.0,WNW,10.4,18.4,N/A,,Overcast,290,2012-12-10 05:35:00
11:55 PM,36.9,32.4,84,29.82,10.0,WNW,11.5,23.0,N/A,,Overcast,300,2012-12-10 05:55:00